GW5522 Weather Reports


time (UTC)temp
C
wind
direction
speed
KPH
gust
KPH
rain 1hr
cm
rain 24hr
cm
rain mn
cm
humidity
%
barometer
mb
20260510071421 11 0 0.0 0.0 0.00 0.00 0.30 98 1009.0
20260510070914 11 19 0.0 3.2 0.00 0.00 0.30 99 1009.0
20260510070415 11 358 0.0 1.6 0.00 0.00 0.30 98 1009.0
20260510065914 11 23 0.0 0.0 0.00 0.00 0.33 98 1009.0
20260510065414 11 23 0.0 3.2 0.00 0.00 0.33 98 1009.0
20260510064915 11 41 0.0 0.0 0.00 0.00 0.33 98 1009.0
20260510064414 11 0 0.0 0.0 0.00 0.00 0.33 98 1009.0
20260510063914 11 0 0.0 0.0 0.00 0.00 0.33 98 1009.0
20260510063414 11 28 0.0 1.6 0.00 0.00 0.33 98 1009.0
20260510062916 11 16 3.2 3.2 0.00 0.00 0.33 98 1009.0
20260510062414 11 355 0.0 3.2 0.00 0.00 0.33 98 1009.0
20260510061914 11 0 0.0 0.0 0.00 0.00 0.30 98 1009.0
20260510061415 11 0 0.0 0.0 0.00 0.00 0.30 98 1009.0
20260510060914 11 0 0.0 0.0 0.00 0.00 0.30 98 1009.0
20260510060414 11 184 0.0 3.2 0.00 0.00 0.30 98 1009.0
20260510055916 11 0 0.0 0.0 0.00 0.00 0.28 98 1009.0
20260510055414 12 22 0.0 3.2 0.00 0.00 0.28 98 1009.0
20260510054914 12 17 3.2 4.8 0.00 0.00 0.28 98 1009.0
20260510054415 12 0 0.0 0.0 0.00 0.00 0.28 98 1010.0
20260510053914 12 96 0.0 0.0 0.00 0.00 0.28 98 1010.0
20260510053416 12 0 0.0 0.0 0.00 0.00 0.28 98 1010.0
20260510052914 12 137 1.6 3.2 0.00 0.00 0.28 98 1010.0
20260510052415 12 222 0.0 0.0 0.00 0.00 0.28 98 1010.0
20260510051914 12 23 1.6 3.2 0.00 0.00 0.18 98 1010.0
20260510051414 12 7 0.0 1.6 0.00 0.00 0.18 98 1010.0
20260510050914 12 327 0.0 3.2 0.00 0.00 0.18 98 1010.0
20260510050414 12 23 3.2 8.0 0.00 0.00 0.18 98 1010.0
20260510045914 12 163 3.2 4.8 0.23 0.00 0.18 98 1010.0
20260510045414 12 144 1.6 3.2 0.18 0.00 0.18 98 1010.0
20260510044914 12 210 1.6 3.2 0.23 0.00 0.18 98 1010.0
20260510044414 12 177 1.6 3.2 0.33 0.00 0.13 98 1011.0
20260510043915 12 147 3.2 3.2 0.15 0.00 0.10 98 1010.0
20260510043414 12 193 3.2 4.8 0.00 0.00 0.10 98 1010.0
20260510042914 12 228 1.6 3.2 0.00 0.00 0.10 98 1010.0
20260510042415 12 158 3.2 4.8 0.00 0.00 0.10 98 1010.0
20260510041914 12 54 1.6 3.2 0.18 0.00 0.20 97 1010.0
20260510041414 12 225 1.6 3.2 0.61 0.00 0.18 97 1011.0
20260510040914 12 225 1.6 3.2 1.40 0.00 0.13 97 1010.0
20260510040414 12 221 3.2 3.2 0.69 0.00 0.05 97 1010.0
20260510035914 12 224 4.8 6.4 0.33 0.00 2.21 97 1010.0
20260510035414 12 225 1.6 3.2 0.00 0.00 2.21 97 1010.0
20260510034914 12 200 1.6 3.2 0.00 0.00 2.21 97 1010.0
20260510034414 12 46 1.6 3.2 0.13 0.00 2.21 97 1010.0
20260510033914 12 45 1.6 3.2 0.00 0.00 2.21 97 1009.0
20260510033415 12 44 1.6 4.8 0.00 0.00 2.24 97 1009.0
20260510032914 12 20 4.8 8.0 0.00 0.00 2.24 97 1009.0
20260510032414 12 171 3.2 9.7 0.00 0.00 2.13 97 1009.0
20260510031914 12 186 6.4 9.7 1.22 0.00 2.11 97 1009.0
20260510031414 12 180 4.8 6.4 0.30 0.00 2.01 97 1009.0
20260510030914 12 184 3.2 4.8 0.10 0.00 1.98 97 1009.0
20260510030414 12 141 0.0 1.6 0.25 0.00 1.98 97 1009.0
20260510025914 12 20 1.6 3.2 0.10 0.00 1.93 97 1010.0
20260510025414 12 265 1.6 6.4 0.00 0.00 1.93 97 1010.0
20260510024914 12 257 0.0 6.4 0.00 0.00 1.93 97 1010.0
20260510024414 12 0 0.0 0.0 0.00 0.00 1.93 97 1009.0
20260510023915 12 0 0.0 0.0 0.00 0.00 1.93 97 1009.0
20260510023414 12 0 0.0 0.0 0.00 0.00 1.91 97 1009.0
20260510022914 12 13 3.2 4.8 0.00 0.00 1.91 97 1009.0
20260510022414 12 37 0.0 1.6 0.00 0.00 1.88 96 1009.0
20260510021914 12 75 0.0 3.2 0.05 0.00 1.91 96 1009.0
20260510021414 12 194 3.2 6.4 0.41 0.00 1.88 96 1010.0
20260510020914 12 188 6.4 8.0 0.03 0.00 1.88 96 1010.0
20260510020414 12 0 0.0 0.0 0.46 0.00 1.91 95 1010.0
20260510015915 12 17 1.6 4.8 0.41 0.00 1.83 95 1010.0
20260510015414 12 195 1.6 3.2 0.43 0.00 1.78 95 1010.0
20260510014915 12 0 0.0 0.0 0.94 0.00 1.78 94 1010.0
20260510014414 12 27 0.0 3.2 1.19 0.00 1.68 94 1010.0
20260510013914 12 0 0.0 0.0 0.64 0.00 1.60 93 1010.0
20260510013414 12 0 0.0 0.0 0.30 0.00 1.40 93 1010.0
20260510012916 12 0 0.0 0.0 0.81 0.00 1.37 92 1010.0
20260510012414 12 353 14.5 17.7 0.66 0.00 1.35 92 1010.0
20260510011915 13 359 12.9 19.3 1.12 0.00 0.91 90 1010.0
20260510011414 13 4 11.3 17.7 2.87 0.00 0.84 88 1009.0
20260510010914 15 359 8.0 19.3 4.52 0.00 0.43 81 1010.0
20260510010414 16 13 6.4 11.3 0.43 0.00 0.28 73 1009.0
20260510005915 17 351 9.7 19.3 0.03 0.00 0.25 66 1008.0
20260510005414 18 329 1.6 4.8 0.03 0.00 0.25 61 1007.0
20260510004914 18 202 1.6 3.2 0.13 0.00 0.25 60 1007.0
20260510004416 18 200 0.0 3.2 0.00 0.00 0.25 59 1007.0
20260510003914 18 162 3.2 4.8 0.00 0.00 0.25 59 1007.0
20260510003416 18 300 0.0 1.6 0.00 0.00 0.25 60 1007.0
20260510002914 18 221 3.2 8.0 0.00 0.00 0.25 58 1007.0
20260510002414 18 245 4.8 12.9 0.00 0.00 0.25 58 1007.0
20260510001914 18 228 4.8 8.0 0.00 0.00 0.25 58 1007.0
20260510001415 18 200 1.6 4.8 0.00 0.00 0.25 58 1007.0
20260510000914 18 288 1.6 4.8 0.00 0.00 0.25 59 1007.0
20260510000414 18 152 3.2 8.0 0.00 0.00 0.25 58 1007.0
20260509235914 18 171 3.2 6.4 0.00 0.00 0.25 58 1007.0
20260509235416 18 153 3.2 6.4 0.00 0.00 0.25 58 1007.0
20260509234915 18 184 1.6 6.4 0.00 0.00 0.25 58 1007.0
20260509234414 19 264 1.6 6.4 0.00 0.00 0.25 57 1007.0
20260509233914 19 196 4.8 9.7 0.00 0.00 0.25 57 1006.0
20260509233415 19 176 8.0 16.1 0.00 0.00 0.25 57 1006.0
20260509232914 19 170 0.0 3.2 0.00 0.00 0.25 57 1006.0
20260509232415 19 194 9.7 16.1 0.00 0.00 0.25 56 1006.0
20260509231914 19 182 6.4 11.3 0.00 0.00 0.25 56 1006.0
20260509231414 19 202 6.4 17.7 0.00 0.00 0.25 55 1006.0
20260509230914 20 165 3.2 6.4 0.00 0.00 0.25 57 1006.0
20260509230416 20 220 3.2 6.4 0.00 0.00 0.25 56 1006.0
20260509225914 20 243 1.6 6.4 0.00 0.00 0.25 57 1006.0
20260509225414 20 205 1.6 6.4 0.00 0.00 0.25 56 1007.0
20260509224914 20 232 4.8 9.7 0.00 0.00 0.25 54 1006.0
20260509224414 20 196 4.8 9.7 0.00 0.00 0.25 54 1006.0
20260509223914 20 156 4.8 12.9 0.00 0.00 0.25 54 1006.0
20260509223415 20 161 6.4 11.3 0.00 0.00 0.25 53 1006.0
20260509222914 20 283 4.8 9.7 0.00 0.00 0.25 54 1006.0
20260509222415 20 179 6.4 8.0 0.00 0.00 0.25 53 1006.0
20260509221914 20 114 1.6 3.2 0.00 0.00 0.25 52 1006.0
20260509221415 20 282 4.8 9.7 0.00 0.00 0.25 52 1006.0
20260509220914 20 213 6.4 9.7 0.00 0.00 0.25 53 1006.0
20260509220414 20 177 4.8 11.3 0.00 0.00 0.25 53 1006.0
20260509215914 20 280 0.0 3.2 0.00 0.00 0.25 54 1006.0
20260509215414 20 191 3.2 9.7 0.00 0.00 0.25 53 1006.0
20260509214914 20 224 4.8 11.3 0.00 0.00 0.25 53 1006.0
20260509214414 20 164 8.0 14.5 0.00 0.00 0.25 52 1006.0
20260509213914 20 220 3.2 9.7 0.00 0.00 0.25 53 1006.0
20260509213414 20 161 4.8 9.7 0.00 0.00 0.25 53 1006.0
20260509212915 20 176 3.2 9.7 0.00 0.00 0.25 55 1006.0
20260509212414 20 170 11.3 16.1 0.00 0.00 0.25 54 1006.0
20260509211914 20 162 4.8 8.0 0.00 0.00 0.25 54 1006.0
20260509211415 20 161 6.4 11.3 0.00 0.00 0.25 53 1006.0
20260509210915 20 156 4.8 12.9 0.00 0.00 0.25 54 1006.0
20260509210415 20 225 4.8 9.7 0.00 0.00 0.25 55 1006.0
20260509205915 20 177 3.2 4.8 0.00 0.00 0.25 56 1007.0
20260509205414 20 185 3.2 6.4 0.00 0.00 0.25 56 1007.0
20260509204914 20 245 4.8 9.7 0.00 0.00 0.25 56 1007.0
20260509204414 20 195 4.8 11.3 0.00 0.00 0.25 55 1007.0
20260509203914 20 245 3.2 8.0 0.00 0.00 0.25 56 1007.0
20260509203414 20 182 6.4 14.5 0.00 0.00 0.25 55 1007.0
20260509202914 19 182 4.8 9.7 0.00 0.00 0.25 57 1007.0
20260509202414 19 245 4.8 9.7 0.00 0.00 0.25 55 1007.0
20260509201914 19 178 6.4 11.3 0.00 0.00 0.25 57 1007.0
20260509201415 19 178 6.4 9.7 0.00 0.00 0.25 58 1007.0
20260509200914 19 164 3.2 8.0 0.00 0.00 0.25 59 1007.0
20260509200416 19 257 4.8 9.7 0.00 0.00 0.25 59 1007.0
20260509195914 19 166 4.8 8.0 0.00 0.00 0.25 59 1007.0
20260509195414 18 248 3.2 9.7 0.00 0.00 0.25 59 1007.0
20260509194921 18 186 6.4 9.7 0.00 0.00 0.25 60 1008.0
20260509194415 18 189 4.8 8.0 0.00 0.00 0.25 59 1008.0
20260509193914 18 212 3.2 6.4 0.00 0.00 0.25 59 1008.0
20260509193415 18 171 3.2 9.7 0.00 0.00 0.25 62 1008.0
20260509192915 19 153 6.4 11.3 0.00 0.00 0.25 60 1008.0
20260509192415 19 158 1.6 4.8 0.00 0.00 0.25 60 1008.0
20260509191915 18 184 4.8 9.7 0.00 0.00 0.25 61 1008.0
20260509191415 18 166 4.8 8.0 0.00 0.00 0.25 61 1008.0
20260509190914 18 188 6.4 11.3 0.00 0.00 0.25 62 1008.0
20260509190414 18 254 6.4 14.5 0.00 0.00 0.25 63 1008.0
20260509185914 18 224 8.0 14.5 0.00 0.00 0.25 63 1008.0
20260509185414 18 135 3.2 8.0 0.00 0.00 0.25 63 1008.0
20260509184914 18 204 3.2 6.4 0.00 0.00 0.25 64 1008.0
20260509184414 18 159 6.4 11.3 0.00 0.00 0.25 66 1008.0
20260509183914 18 241 3.2 6.4 0.00 0.00 0.25 66 1008.0
20260509183414 18 202 4.8 8.0 0.00 0.00 0.25 67 1008.0
20260509182914 17 275 1.6 4.8 0.00 0.00 0.25 71 1008.0
20260509182414 17 273 3.2 6.4 0.00 0.00 0.25 71 1008.0
20260509181915 17 202 6.4 11.3 0.00 0.00 0.25 71 1008.0
20260509181414 17 177 9.7 11.3 0.00 0.00 0.25 70 1008.0
20260509180914 16 225 4.8 11.3 0.00 0.00 0.25 73 1008.0
20260509180414 16 205 4.8 11.3 0.00 0.00 0.25 75 1008.0
20260509175914 17 146 3.2 6.4 0.00 0.00 0.25 75 1008.0
20260509175414 16 184 3.2 6.4 0.00 0.00 0.25 75 1008.0
20260509174914 16 189 4.8 9.7 0.00 0.00 0.25 76 1008.0
20260509174414 16 210 4.8 8.0 0.00 0.00 0.25 76 1008.0
20260509173914 16 293 3.2 6.4 0.00 0.00 0.25 75 1008.0
20260509173414 16 171 3.2 9.7 0.00 0.00 0.25 76 1008.0
20260509172917 16 261 3.2 6.4 0.00 0.00 0.25 77 1008.0
20260509172414 16 204 4.8 12.9 0.00 0.00 0.25 76 1008.0
20260509171914 16 177 3.2 6.4 0.00 0.00 0.25 80 1008.0
20260509171414 15 265 0.0 1.6 0.00 0.00 0.25 80 1008.0
20260509170914 15 178 1.6 6.4 0.00 0.00 0.25 82 1008.0
20260509170414 15 205 1.6 6.4 0.00 0.00 0.25 83 1008.0
20260509165915 15 295 1.6 4.8 0.00 0.00 0.25 83 1008.0
20260509165414 15 177 4.8 9.7 0.00 0.00 0.25 85 1009.0
20260509164914 14 170 4.8 6.4 0.00 0.00 0.25 85 1008.0
20260509164415 14 0 0.0 0.0 0.00 0.00 0.25 86 1008.0
20260509163915 14 174 0.0 1.6 0.00 0.00 0.25 86 1008.0
20260509163414 13 0 0.0 0.0 0.00 0.00 0.25 89 1009.0
20260509162914 13 156 0.0 0.0 0.00 0.00 0.25 89 1009.0
20260509162414 13 244 0.0 0.0 0.00 0.00 0.25 90 1009.0
20260509161914 13 178 3.2 6.4 0.00 0.00 0.25 89 1008.0
20260509161415 13 303 3.2 4.8 0.00 0.00 0.25 89 1008.0
20260509160915 13 152 1.6 3.2 0.00 0.00 0.25 89 1008.0
20260509160414 13 269 3.2 4.8 0.00 0.00 0.25 90 1008.0
20260509155915 13 179 3.2 3.2 0.00 0.00 0.25 89 1008.0
20260509155415 13 247 1.6 3.2 0.00 0.00 0.25 91 1009.0
20260509154914 13 186 6.4 8.0 0.00 0.00 0.25 91 1008.0
20260509154414 13 158 0.0 4.8 0.00 0.00 0.25 91 1008.0
20260509153914 13 153 0.0 3.2 0.00 0.00 0.25 91 1008.0
20260509153414 13 226 3.2 3.2 0.00 0.00 0.25 91 1008.0
20260509152914 13 186 3.2 4.8 0.00 0.00 0.25 91 1008.0
20260509152414 12 192 3.2 3.2 0.00 0.00 0.28 93 1008.0
20260509151915 12 215 3.2 8.0 0.00 0.00 0.28 93 1008.0
20260509151415 12 223 3.2 9.7 0.00 0.00 0.28 94 1008.0
20260509150914 12 197 3.2 4.8 0.00 0.00 0.28 95 1008.0
20260509150415 12 141 1.6 3.2 0.00 0.00 0.28 95 1008.0
20260509145914 11 170 0.0 0.0 0.00 0.00 0.28 95 1008.0
20260509145414 11 0 0.0 0.0 0.00 0.00 0.28 96 1008.0
20260509144915 11 178 1.6 4.8 0.00 0.00 0.23 96 1008.0
20260509144414 11 110 1.6 3.2 0.00 0.00 0.23 96 1008.0
20260509143914 11 107 0.0 0.0 0.03 0.00 0.20 96 1008.0
20260509143414 11 208 3.2 3.2 0.15 0.00 0.20 96 1008.0
20260509142914 11 152 3.2 3.2 0.15 0.00 0.18 96 1008.0
20260509142415 11 140 1.6 3.2 0.25 0.00 0.15 95 1008.0
20260509141915 11 182 0.0 1.6 0.15 0.00 0.15 95 1008.0
20260509141414 11 166 0.0 0.0 0.00 0.00 0.15 95 1008.0
20260509140916 11 214 0.0 0.0 0.00 0.00 0.15 95 1008.0
20260509140415 11 111 0.0 0.0 0.00 0.00 0.15 95 1008.0
20260509135914 11 121 1.6 3.2 0.00 0.00 0.15 95 1008.0
20260509135414 11 146 1.6 1.6 0.00 0.00 0.15 95 1008.0
20260509134914 11 182 4.8 6.4 0.00 0.00 0.15 95 1008.0
20260509134414 11 164 4.8 6.4 0.00 0.00 0.15 95 1009.0
20260509133924 11 116 1.6 3.2 0.00 0.00 0.15 95 1009.0
20260509133414 11 241 3.2 4.8 0.00 0.00 0.15 95 1009.0
20260509132915 11 357 0.0 1.6 0.00 0.00 0.15 95 1009.0
20260509132415 11 149 0.0 3.2 0.00 0.00 0.15 95 1009.0
20260509131915 11 167 1.6 3.2 0.00 0.00 0.15 95 1009.0
20260509131416 11 210 4.8 6.4 0.00 0.00 0.15 95 1009.0
20260509130915 11 200 1.6 3.2 0.00 0.00 0.15 95 1009.0
20260509130414 11 103 0.0 1.6 0.00 0.00 0.15 96 1009.0
20260509125915 11 186 6.4 8.0 0.00 0.00 0.15 96 1009.0
20260509125415 11 229 3.2 4.8 0.00 0.00 0.15 97 1009.0
20260509124914 10 178 6.4 6.4 0.00 0.00 0.15 98 1009.0
20260509124414 10 210 3.2 6.4 0.00 0.00 0.15 99 1009.0
20260509123914 10 224 3.2 3.2 0.00 0.00 0.15 99 1009.0
20260509123414 10 185 3.2 3.2 0.00 0.00 0.15 99 1009.0
20260509122915 10 0 0.0 0.0 0.00 0.00 0.15 99 1009.0
20260509122414 10 0 0.0 0.0 0.00 0.00 0.15 99 1009.0
20260509121914 10 125 0.0 1.6 0.00 0.00 0.15 99 1009.0
20260509121414 10 20 1.6 3.2 0.00 0.00 0.15 99 1009.0
20260509120915 10 23 1.6 3.2 0.00 0.00 0.15 99 1009.0
20260509120414 10 13 0.0 1.6 0.00 0.00 0.15 99 1009.0
20260509115914 10 0 0.0 0.0 0.00 0.00 0.15 99 1009.0
20260509115414 10 0 0.0 0.0 0.00 0.00 0.15 99 1009.0
20260509114914 10 39 0.0 0.0 0.00 0.00 0.15 99 1009.0
20260509114414 10 0 0.0 0.0 0.00 0.00 0.15 99 1009.0
20260509113919 10 44 0.0 0.0 0.00 0.00 0.15 99 1009.0
20260509113415 9 0 0.0 0.0 0.00 0.00 0.15 99 1009.0
20260509112914 9 94 0.0 1.6 0.00 0.00 0.15 99 1009.0
20260509112414 9 101 0.0 1.6 0.00 0.00 0.15 99 1009.0
20260509111915 9 0 0.0 0.0 0.05 0.00 0.18 99 1009.0
20260509111414 9 0 0.0 0.0 0.00 0.00 0.15 99 1009.0
20260509110915 9 0 0.0 0.0 0.00 0.00 0.15 99 1009.0
20260509110414 9 171 1.6 3.2 0.00 0.00 0.15 99 1009.0
20260509105914 9 112 0.0 0.0 0.03 0.00 0.15 99 1009.0
20260509105414 9 0 0.0 0.0 0.00 0.00 0.15 99 1009.0
20260509104914 9 0 0.0 0.0 0.00 0.00 0.15 99 1009.0
20260509104414 9 0 0.0 0.0 0.03 0.00 0.15 99 1009.0
20260509103914 9 0 0.0 0.0 0.03 0.00 0.15 99 1009.0
20260509103414 9 191 3.2 3.2 0.00 0.00 0.13 99 1009.0
20260509102914 9 201 3.2 3.2 0.00 0.00 0.13 99 1008.0
20260509102414 9 153 0.0 0.0 0.08 0.00 0.13 99 1009.0
20260509101915 9 189 3.2 3.2 0.18 0.00 0.13 99 1009.0
20260509101414 9 0 0.0 0.0 0.05 0.00 0.10 99 1009.0
20260509100914 9 5 0.0 1.6 0.03 0.00 0.10 99 1009.0
20260509100414 9 0 0.0 0.0 0.00 0.00 0.10 99 1009.0
20260509095914 9 0 0.0 0.0 0.13 0.00 0.10 99 1009.0
20260509095414 9 0 0.0 0.0 0.10 0.00 0.08 99 1009.0
20260509094914 9 0 0.0 0.0 0.05 0.00 0.08 99 1009.0
20260509094414 9 0 0.0 0.0 0.05 0.00 0.08 99 1009.0
20260509093914 9 0 0.0 0.0 0.08 0.00 0.08 99 1009.0
20260509093414 9 0 0.0 0.0 0.03 0.00 0.08 99 1009.0
20260509092919 9 0 0.0 0.0 0.05 0.00 0.08 99 1009.0
20260509092414 9 236 0.0 0.0 0.15 0.00 0.08 99 1009.0
20260509091915 9 0 0.0 0.0 0.03 0.00 0.08 99 1009.0
20260509091414 9 245 1.6 4.8 0.13 0.00 0.08 99 1009.0
20260509090914 9 0 0.0 0.0 0.00 0.00 0.05 99 1009.0
20260509090414 9 0 0.0 0.0 0.00 0.00 0.08 99 1009.0
20260509085915 9 0 0.0 0.0 0.08 0.00 0.05 99 1009.0
20260509085415 9 0 0.0 0.0 0.05 0.00 0.05 99 1009.0
20260509084915 9 0 0.0 0.0 0.05 0.00 0.05 99 1009.0
20260509084414 9 0 0.0 0.0 0.10 0.00 0.05 99 1009.0
20260509083914 9 0 0.0 0.0 0.10 0.00 0.05 99 1009.0
20260509083415 9 14 0.0 3.2 0.03 0.00 0.05 99 1010.0
20260509082915 9 0 0.0 0.0 0.08 0.00 0.05 99 1009.0
20260509082416 9 62 0.0 1.6 0.00 0.00 0.03 99 1009.0
20260509081914 9 22 3.2 4.8 0.00 0.00 0.05 99 1009.0
20260509081415 9 0 0.0 0.0 0.10 0.00 0.05 99 1010.0
20260509080914 9 0 0.0 0.0 0.03 0.00 0.05 99 1010.0
20260509080414 9 0 0.0 0.0 0.20 0.00 0.05 99 1010.0
20260509075915 9 0 0.0 0.0 0.10 0.00 0.03 99 1010.0
20260509075415 9 0 0.0 0.0 0.00 0.00 0.03 99 1010.0
20260509074914 9 24 0.0 3.2 0.00 0.00 0.03 99 1010.0
20260509074414 9 0 0.0 0.0 0.00 0.00 0.03 99 1010.0
20260509073914 9 0 0.0 0.0 0.00 0.00 0.03 99 1010.0
20260509073414 9 0 0.0 0.0 0.00 0.00 0.03 99 1010.0
20260509072914 9 0 0.0 0.0 0.03 0.00 0.03 99 1010.0
20260509072414 9 0 0.0 0.0 0.03 0.00 0.03 99 1010.0
20260509071914 9 0 0.0 0.0 0.23 0.00 0.03 99 1009.0